Weather History for Kalaeloa, HI

Change the Weather History Date:

Tuesday, February 12, 2013

  Actual Average (PHNL) Record (PHNL)
Temperature  
Mean Temperature 70 °F 73 °F  
Max Temperature 78 °F 80 °F 85 °F (1958)
Min Temperature 62 °F 66 °F 53 °F (1983)
Degree Days  
Heating Degree Days 0 0  
Month to date heating degree days 0  
Since 1 July heating degree days 0  
Cooling Degree Days 6 8  
Month to date cooling degree days 96  
Year to date cooling degree days 350  
Growing Degree Days 20 (Base 50)    
Moisture  
Dew Point 58 °F    
Average Humidity 67    
Maximum Humidity 78    
Minimum Humidity 50    
Precipitation  
Precipitation 0.00 in 0.06 in 1.81 in (1959)
Month to date precipitation 0.76  
Year to date precipitation 3.07  
Snow  
Snow 0.00 in - - ()
Month to date snowfall  
Since 1 July snowfall  
Snow Depth -    
Sea Level Pressure  
Sea Level Pressure 30.19 in    
Wind  
Wind Speed 3 mph (ENE)    
Max Wind Speed 8 mph    
Max Gust Speed 18 mph    
Visibility 10 miles    
Events      
T = Trace of Precipitation, MM = Missing Value Source: NWS Daily Summary

Daily Weather History Graph

Daily Weather History Graph

Search for Another Location

Airport:

Trip Planner

Search our weather history database for the weather conditions in past years. The results will help you decide how hot, cold, wet, or windy it might be!

Date:

Astronomy

Feb. 12, 2013 Rise Set
Actual Time 7:04 AM HST 6:29 PM HST
Civil Twilight 6:41 AM HST 6:51 PM HST
Nautical Twilight 6:15 AM HST 7:18 PM HST
Astronomical Twilight 5:49 AM HST 7:44 PM HST
Moon 8:35 AM HST (2/12) 9:09 PM HST (2/12)
Length of Visible Light 12h 10m
Length of Day
11h 24m
Waxing Crescent, 8% of the Moon is Illuminated
Feb 12
Waxing Crescent
Feb 17
First Quarter
Feb 25
Full
Mar 4
Last Quarter
Mar 11
New

Hourly Weather History & Observations

Time (HST) Temp. Dew Point Humidity Pressure Visibility Wind Dir Wind Speed Gust Speed Precip Events Conditions
12:53 AM 69.1 °F 60.1 °F 73% 30.23 in 10.0 mi Variable 4.6 mph - N/A   Scattered Clouds
1:53 AM 68.0 °F 59.0 °F 73% 30.22 in 10.0 mi Variable 3.5 mph - N/A   Partly Cloudy
2:53 AM 66.9 °F 59.0 °F 76% 30.20 in 10.0 mi Variable 3.5 mph - N/A   Clear
3:53 AM 66.9 °F 57.9 °F 73% 30.20 in 10.0 mi Calm Calm - N/A   Partly Cloudy
4:53 AM 64.9 °F 57.0 °F 75% 30.20 in 10.0 mi Calm Calm - N/A   Mostly Cloudy
5:35 AM 64.4 °F 55.4 °F 73% 30.17 in 10.0 mi Calm Calm - N/A   Partly Cloudy
5:53 AM 63.0 °F 54.0 °F 72% 30.19 in 10.0 mi Calm Calm - N/A   Clear
6:53 AM 64.0 °F 55.0 °F 73% 30.21 in 10.0 mi Calm Calm - N/A   Overcast
7:53 AM 68.0 °F 57.0 °F 68% 30.23 in 10.0 mi Calm Calm - N/A   Mostly Cloudy
8:53 AM 71.1 °F 59.0 °F 66% 30.22 in 10.0 mi North - - N/A   Mostly Cloudy
9:53 AM 75.0 °F 59.0 °F 57% 30.22 in 10.0 mi Variable 6.9 mph - N/A   Mostly Cloudy
10:53 AM 75.0 °F 57.9 °F 55% 30.22 in 10.0 mi Variable 6.9 mph - N/A   Overcast
11:53 AM 78.1 °F 57.9 °F 50% 30.20 in 10.0 mi East 6.9 mph 16.1 mph N/A   Mostly Cloudy
12:53 PM 77.0 °F 57.9 °F 52% 30.18 in 10.0 mi ENE 6.9 mph - N/A   Mostly Cloudy
1:53 PM 75.9 °F 57.9 °F 54% 30.16 in 10.0 mi Variable 5.8 mph 18.4 mph N/A   Scattered Clouds
2:53 PM 77.0 °F 59.0 °F 54% 30.15 in 10.0 mi Variable 5.8 mph 16.1 mph N/A   Overcast
3:53 PM 73.9 °F 61.0 °F 64% 30.14 in 10.0 mi East 8.1 mph - N/A   Overcast
4:53 PM 71.1 °F 60.1 °F 68% 30.14 in 10.0 mi Variable 5.8 mph - N/A   Overcast
5:53 PM 71.1 °F 59.0 °F 66% 30.15 in 10.0 mi Variable 5.8 mph - N/A   Overcast
6:53 PM 70.0 °F 59.0 °F 68% 30.16 in 10.0 mi Calm Calm - N/A   Overcast
7:53 PM 68.0 °F 59.0 °F 73% 30.17 in 10.0 mi Calm Calm - N/A   Mostly Cloudy
8:53 PM 66.9 °F 57.9 °F 73% 30.18 in 10.0 mi NE 3.5 mph - N/A   Mostly Cloudy
9:53 PM 64.9 °F 57.9 °F 78% 30.19 in 10.0 mi Calm Calm - N/A   Mostly Cloudy
10:53 PM 66.0 °F 55.9 °F 70% 30.19 in 10.0 mi Calm Calm - N/A   Mostly Cloudy
11:53 PM 62.1 °F 55.0 °F 78% 30.19 in 10.0 mi Calm Calm - N/A   Clear